User: anonymous   Login
Location: Enborne
(51.3833°N, 1.3667°W)
Time: 10:40:52
(UTC+00:00)
Language:

Meteor 1-15 Rocket - Orbit

View from above orbital plane
View from above orbital plane
View from above satellite
View from above satellite

Ground track
Ground track

The orbit data is extracted from the following two-line orbital elements,

1  6660U 73034B   20336.41356585 +.00000024 +00000-0 +65485-5 0  9995
2  6660 081.2324 222.6778 0047526 139.3244 221.1490 14.05854035435617
Epoch (UTC): 01 December 2020 09:55:32
Eccentricity: 0.0047526
inclination: 81.2324°
perigee height: 839 km
apogee height: 908 km
right ascension of ascending node: 222.6778°
argument of perigee: 139.3244°
revolutions per day: 14.05854035
mean anomaly at epoch: 221.1490°
orbit number at epoch: 43561

The dashed part of the orbit path shows where the satellite is in the earth's shadow,  

DLR